Location: Unspecified
(33.9239°N, 118.0544°W)
Time: 04:26:18
(UTC-08:00)

Resurs 1-4 Rocket - Visible Passes

Search period start: 28 February 2015 00:00
Search period end: 10 March 2015 01:00
Orbit: 801 x 814 km, 98.4° (Epoch: 27 February)

Date Brightness Start Highest point End Pass type
(mag) Time Alt. Az. Time Alt. Az. Time Alt. Az.
28 Feb 4.5 03:16:57 10° NNE 03:17:55 16° NNE 03:17:55 16° NNE visible
28 Feb 4.2 04:58:41 10° NNW 04:59:01 11° NW 04:59:01 11° NW visible
01 Mar 4.9 02:52:52 10° NNE 02:53:19 12° NE 02:53:19 12° NE visible
01 Mar 4.0 04:33:04 10° NNW 04:34:25 16° NNW 04:34:25 16° NNW visible
02 Mar 3.8 04:08:03 10° N 04:09:49 20° NNW 04:09:49 20° NNW visible
03 Mar 3.9 03:43:23 10° N 03:45:12 22° N 03:45:12 22° N visible
04 Mar 4.2 03:18:57 10° NNE 03:20:36 20° NNE 03:20:36 20° NNE visible
04 Mar 4.1 05:00:55 10° NW 05:01:42 12° NW 05:01:42 12° NW visible
05 Mar 4.6 02:54:50 10° NNE 02:56:00 16° NE 02:56:00 16° NE visible
05 Mar 3.8 04:35:11 10° NNW 04:37:06 18° NW 04:37:06 18° NW visible
06 Mar 5.0 02:31:12 10° NE 02:31:24 11° NE 02:31:24 11° NE visible
06 Mar 3.5 04:10:08 10° N 04:12:29 24° NNW 04:12:29 24° NNW visible
07 Mar 3.5 03:45:25 10° N 03:47:53 28° N 03:47:53 28° N visible
08 Mar 3.8 04:20:58 10° NNE 04:23:16 26° NNE 04:23:16 26° NNE visible
08 Mar 4.0 06:03:10 10° NW 06:04:22 12° NW 06:04:22 12° NW visible
09 Mar 4.3 03:56:49 10° NNE 03:58:40 20° NE 03:58:40 20° NE visible
09 Mar 3.6 05:37:18 10° NNW 05:39:46 19° NW 05:39:46 19° NW visible
